GOBMD EGHR-EGHH

Flight info

Callsign GOBMD
Flight time 0h 31m
Altitude 3000
Route EGHR/06 EGHJ VNR EGLT EGHH/26
Aircraft DA40/L-V/N

Departure

Time 2026-04-26 09:22
Airport Goodwood Aerodrome (EGHR)

Arrival

Time 2026-04-26 09:53
Airport Bournemouth Airport (EGHH)
Time Latitude Longitude Altitude Speed Heading
2026-04-26 09:13 50.85792 -0.75518 104 ft 0 kts 355°
2026-04-26 09:18 50.85814 -0.75537 104 ft 12 kts 328°
2026-04-26 09:19 50.85887 -0.75623 104 ft 14 kts 319°
2026-04-26 09:19 50.85953 -0.75735 104 ft 12 kts 301°
2026-04-26 09:19 50.85993 -0.75823 104 ft 8 kts 308°
2026-04-26 09:19 50.86042 -0.75901 102 ft 14 kts 318°
2026-04-26 09:20 50.86099 -0.75984 104 ft 14 kts 318°
2026-04-26 09:20 50.86184 -0.76105 104 ft 15 kts 320°
2026-04-26 09:20 50.86252 -0.76190 105 ft 13 kts 316°
2026-04-26 09:20 50.86268 -0.76294 105 ft 9 kts 276°
2026-04-26 09:21 50.86255 -0.76361 105 ft 4 kts 203°
2026-04-26 09:21 50.86192 -0.76284 106 ft 33 kts 140°
2026-04-26 09:21 50.85908 -0.75911 114 ft 71 kts 140°
2026-04-26 09:21 50.85516 -0.75397 294 ft 77 kts 133°
2026-04-26 09:22 50.85137 -0.74844 578 ft 75 kts 130°
2026-04-26 09:22 50.84604 -0.74440 714 ft 95 kts 175°
2026-04-26 09:22 50.84022 -0.75042 886 ft 111 kts 230°
2026-04-26 09:22 50.83625 -0.76113 1129 ft 116 kts 236°
2026-04-26 09:23 50.83244 -0.77267 1315 ft 120 kts 238°
2026-04-26 09:23 50.82814 -0.78370 1506 ft 115 kts 230°
2026-04-26 09:23 50.82409 -0.79421 1759 ft 108 kts 233°
2026-04-26 09:23 50.82009 -0.80478 1990 ft 116 kts 239°
2026-04-26 09:24 50.81783 -0.81720 2252 ft 117 kts 256°
2026-04-26 09:24 50.81726 -0.82571 2371 ft 118 kts 263°
2026-04-26 09:24 50.81681 -0.83873 2558 ft 117 kts 263°
2026-04-26 09:24 50.81526 -0.85114 2743 ft 115 kts 236°
2026-04-26 09:25 50.81049 -0.86115 2919 ft 114 kts 225°
2026-04-26 09:25 50.80532 -0.87134 2984 ft 127 kts 224°
2026-04-26 09:25 50.79940 -0.88264 2986 ft 139 kts 224°
2026-04-26 09:25 50.79299 -0.89474 2988 ft 147 kts 225°
2026-04-26 09:26 50.78642 -0.90724 3007 ft 147 kts 225°
2026-04-26 09:26 50.77994 -0.91936 3082 ft 144 kts 224°
2026-04-26 09:26 50.77346 -0.93144 3080 ft 145 kts 225°
2026-04-26 09:26 50.76695 -0.94363 3087 ft 145 kts 225°
2026-04-26 09:27 50.76043 -0.95585 3085 ft 145 kts 223°
2026-04-26 09:27 50.75392 -0.96804 3085 ft 145 kts 224°
2026-04-26 09:27 50.74740 -0.98023 3085 ft 145 kts 225°
2026-04-26 09:27 50.74094 -0.99230 3085 ft 143 kts 224°
2026-04-26 09:28 50.73464 -1.00410 3086 ft 138 kts 223°
2026-04-26 09:28 50.72851 -1.01555 3086 ft 135 kts 223°
2026-04-26 09:28 50.72246 -1.02683 3083 ft 133 kts 223°
2026-04-26 09:28 50.71651 -1.03790 3082 ft 132 kts 222°
2026-04-26 09:29 50.71053 -1.04903 3083 ft 133 kts 224°
2026-04-26 09:29 50.70452 -1.06022 3082 ft 134 kts 223°
2026-04-26 09:29 50.69837 -1.07126 3079 ft 134 kts 222°
2026-04-26 09:29 50.69241 -1.08266 3080 ft 135 kts 225°
2026-04-26 09:30 50.68635 -1.09409 3082 ft 139 kts 223°
2026-04-26 09:30 50.68013 -1.10566 3077 ft 137 kts 223°
2026-04-26 09:30 50.67317 -1.11551 3088 ft 134 kts 209°
2026-04-26 09:30 50.66560 -1.12435 3090 ft 137 kts 212°
2026-04-26 09:31 50.65786 -1.13359 3076 ft 140 kts 211°
2026-04-26 09:31 50.65024 -1.14272 3074 ft 135 kts 210°
2026-04-26 09:31 50.64281 -1.15157 3073 ft 133 kts 211°
2026-04-26 09:31 50.63550 -1.16029 3078 ft 131 kts 210°
2026-04-26 09:32 50.62819 -1.16895 3080 ft 132 kts 209°
2026-04-26 09:32 50.62087 -1.17763 3083 ft 132 kts 212°
2026-04-26 09:32 50.61355 -1.18637 3079 ft 133 kts 212°
2026-04-26 09:32 50.60749 -1.19804 3083 ft 147 kts 240°
2026-04-26 09:33 50.60614 -1.21434 3084 ft 156 kts 275°
2026-04-26 09:33 50.60869 -1.23126 3076 ft 160 kts 282°
2026-04-26 09:33 50.61134 -1.24829 3087 ft 162 kts 281°
2026-04-26 09:33 50.61398 -1.26568 3077 ft 163 kts 282°
2026-04-26 09:34 50.61658 -1.28306 3082 ft 163 kts 281°
2026-04-26 09:34 50.61913 -1.30044 3081 ft 162 kts 282°
2026-04-26 09:34 50.62172 -1.31758 3088 ft 160 kts 281°
2026-04-26 09:34 50.62249 -1.32270 3084 ft 160 kts 282°
2026-04-26 09:35 50.62499 -1.33954 3077 ft 159 kts 281°
2026-04-26 09:35 50.62747 -1.35640 3082 ft 158 kts 281°
2026-04-26 09:35 50.62999 -1.37324 3083 ft 156 kts 281°
2026-04-26 09:36 50.63243 -1.38961 3082 ft 150 kts 281°
2026-04-26 09:36 50.63478 -1.40541 3079 ft 145 kts 281°
2026-04-26 09:36 50.63708 -1.42101 3087 ft 149 kts 281°
2026-04-26 09:36 50.63936 -1.43676 3070 ft 147 kts 281°
2026-04-26 09:37 50.64173 -1.45208 3063 ft 139 kts 283°
2026-04-26 09:37 50.64406 -1.46635 3071 ft 134 kts 278°
2026-04-26 09:37 50.64574 -1.47993 3069 ft 133 kts 279°
2026-04-26 09:37 50.64783 -1.49408 3068 ft 132 kts 281°
2026-04-26 09:38 50.64987 -1.50757 3069 ft 117 kts 281°
2026-04-26 09:38 50.65169 -1.52010 3069 ft 118 kts 280°
2026-04-26 09:38 50.65384 -1.53259 3074 ft 119 kts 294°
2026-04-26 09:38 50.65854 -1.54348 3065 ft 120 kts 287°
2026-04-26 09:39 50.65791 -1.55586 3070 ft 116 kts 257°
2026-04-26 09:39 50.65907 -1.56865 3071 ft 118 kts 279°
2026-04-26 09:39 50.66081 -1.58135 3072 ft 119 kts 279°
2026-04-26 09:39 50.66253 -1.59406 3070 ft 118 kts 282°
2026-04-26 09:40 50.66784 -1.60312 3071 ft 115 kts 341°
2026-04-26 09:40 50.67473 -1.60931 3067 ft 112 kts 352°
2026-04-26 09:40 50.68230 -1.60971 3069 ft 108 kts
2026-04-26 09:40 50.68945 -1.60747 3070 ft 104 kts 22°
2026-04-26 09:41 50.69650 -1.60465 3069 ft 104 kts 22°
2026-04-26 09:41 50.70355 -1.60182 3069 ft 104 kts 22°
2026-04-26 09:41 50.71055 -1.59885 3071 ft 104 kts 23°
2026-04-26 09:41 50.71745 -1.59609 3067 ft 101 kts 22°
2026-04-26 09:42 50.72420 -1.59351 3074 ft 100 kts 23°
2026-04-26 09:42 50.73095 -1.59097 3070 ft 101 kts 22°
2026-04-26 09:42 50.73784 -1.58806 3078 ft 106 kts 22°
2026-04-26 09:42 50.74521 -1.58628 3065 ft 109 kts
2026-04-26 09:43 50.75240 -1.58404 3066 ft 103 kts 23°
2026-04-26 09:43 50.75868 -1.58168 3064 ft 87 kts 26°
2026-04-26 09:43 50.76418 -1.57829 3064 ft 84 kts 31°
2026-04-26 09:43 50.76959 -1.57510 3070 ft 84 kts 31°
2026-04-26 09:44 50.77381 -1.56958 3064 ft 79 kts 77°
2026-04-26 09:44 50.77539 -1.56123 3075 ft 81 kts 79°
2026-04-26 09:44 50.77736 -1.55273 3047 ft 83 kts 78°
2026-04-26 09:44 50.77976 -1.54434 3050 ft 85 kts 71°
2026-04-26 09:45 50.78303 -1.53622 3009 ft 90 kts 59°
2026-04-26 09:45 50.78728 -1.52862 3020 ft 93 kts 53°
2026-04-26 09:45 50.79177 -1.52158 2987 ft 93 kts 51°
2026-04-26 09:45 50.79810 -1.51747 3081 ft 111 kts
2026-04-26 09:46 50.80577 -1.52100 3217 ft 120 kts 341°
2026-04-26 09:46 50.81395 -1.52624 3234 ft 132 kts 342°
2026-04-26 09:46 50.82258 -1.53118 3277 ft 132 kts 346°
2026-04-26 09:46 50.83025 -1.53782 3271 ft 123 kts 311°
2026-04-26 09:47 50.83117 -1.54994 3229 ft 111 kts 242°
2026-04-26 09:47 50.82752 -1.56030 3206 ft 109 kts 247°
2026-04-26 09:47 50.82539 -1.57157 3198 ft 108 kts 244°
2026-04-26 09:47 50.82307 -1.58358 3174 ft 122 kts 247°
2026-04-26 09:48 50.82068 -1.59726 3009 ft 134 kts 251°
2026-04-26 09:48 50.81827 -1.61213 2830 ft 146 kts 251°
2026-04-26 09:48 50.81577 -1.62748 2625 ft 140 kts 251°
2026-04-26 09:48 50.81357 -1.64084 2452 ft 113 kts 249°
2026-04-26 09:49 50.81166 -1.65213 2300 ft 101 kts 250°
2026-04-26 09:49 50.81001 -1.66187 2186 ft 91 kts 246°
2026-04-26 09:49 50.80832 -1.67198 2067 ft 101 kts 249°
2026-04-26 09:49 50.80650 -1.68298 1909 ft 102 kts 250°
2026-04-26 09:50 50.80476 -1.69363 1775 ft 99 kts 250°
2026-04-26 09:50 50.80299 -1.70419 1644 ft 100 kts 251°
2026-04-26 09:50 50.80121 -1.71500 1492 ft 99 kts 249°
2026-04-26 09:50 50.79945 -1.72536 1332 ft 97 kts 250°
2026-04-26 09:51 50.79769 -1.73546 1207 ft 96 kts 252°
2026-04-26 09:51 50.79619 -1.74601 1061 ft 99 kts 252°
2026-04-26 09:51 50.79444 -1.75624 957 ft 95 kts 249°
2026-04-26 09:51 50.79265 -1.76629 825 ft 94 kts 250°
2026-04-26 09:52 50.79091 -1.77606 707 ft 90 kts 253°
2026-04-26 09:52 50.78775 -1.79544 520 ft 90 kts 255°
2026-04-26 09:52 50.78633 -1.80470 381 ft 85 kts 256°
2026-04-26 09:53 50.78492 -1.81355 280 ft 86 kts 253°
2026-04-26 09:53 50.78338 -1.82254 135 ft 79 kts 253°
2026-04-26 09:53 50.78203 -1.83071 40 ft 69 kts 252°
2026-04-26 09:53 50.78110 -1.83601 39 ft 29 kts 255°
2026-04-26 09:54 50.78075 -1.83851 38 ft 15 kts 269°
2026-04-26 09:54 50.78129 -1.83926 39 ft 10 kts 342°
2026-04-26 09:54 50.78196 -1.83951 39 ft 10 kts 343°
2026-04-26 09:54 50.78261 -1.83980 39 ft 10 kts 347°
2026-04-26 09:55 50.78327 -1.84007 39 ft 10 kts 346°
2026-04-26 09:55 50.78394 -1.84035 39 ft 10 kts 343°
2026-04-26 09:55 50.78460 -1.84063 39 ft 10 kts 347°
2026-04-26 09:55 50.78527 -1.84091 39 ft 10 kts 343°
2026-04-26 09:56 50.78582 -1.84113 39 ft 7 kts 346°
2026-04-26 09:56 50.78615 -1.84092 39 ft 6 kts 81°
2026-04-26 09:56 50.78615 -1.84032 39 ft 5 kts 130°
2026-04-26 09:56 50.78594 -1.84018 39 ft 0 kts 159°